TDRS 3 1 19548U 88091B 25300.46348620 -.00000288 00000+0 00000+0 0 9993 2 19548 12.7809 342.5315 0039151 341.1557 190.4448 1.00272034123054 HST 1 20580U 90037B 25300.93009246 .00009662 00000+0 34408-3 0 9991 2 20580 28.4672 224.0916 0002143 83.0893 276.9946 15.27181288752988 TDRS 5 1 21639U 91054B 25300.52274532 .00000095 00000+0 00000+0 0 9992 2 21639 14.0961 355.4742 0026993 279.4697 141.7262 1.00266239125388 TDRS 6 1 22314U 93003B 25300.61238735 -.00000284 00000+0 00000+0 0 9995 2 22314 14.1784 358.7730 0010351 200.8370 11.3149 1.00272441120072 TDRS 7 1 23613U 95035B 25300.86749686 -.00000226 00000+0 00000+0 0 9990 2 23613 13.4748 349.7804 0005450 101.6327 346.3058 1.00267056110922 ISS (ZARYA) 1 25544U 98067A 25300.68375554 .00015570 00000+0 28487-3 0 9992 2 25544 51.6344 10.4932 0004705 346.2107 13.8753 15.49527127535714 TERRA 1 25994U 99068A 25300.99310481 .00000695 00000+0 15118-3 0 9994 2 25994 97.9815 354.3394 0001255 213.2187 267.1520 14.60872654375706 TDRS 8 1 26388U 00034A 25300.86151677 -.00000182 00000+0 00000+0 0 9995 2 26388 12.3159 33.2443 0002804 201.3952 196.8242 1.00270306 92850 TIMED 1 26998U 01055B 25300.52414408 .00001838 00000+0 17396-3 0 9991 2 26998 74.0690 343.2216 0002422 262.2968 97.7941 14.94455775296058 AQUA 1 27424U 02022A 25300.95918935 .00001650 00000+0 34156-3 0 9997 2 27424 98.3965 261.1169 0001429 52.3241 348.5715 14.61643046249340 SORCE 1 27651U 03004A 25300.96007401 .00005468 00000+0 42266-3 0 9990 2 27651 39.9899 144.9041 0016549 185.3940 174.6678 15.01738201236950 AURA 1 28376U 04026A 25300.96788922 .00001616 00000+0 34080-3 0 9990 2 28376 98.3107 251.0057 0001279 65.6216 294.5117 14.60781185132300 SWIFT 1 28485U 04047A 25300.86396791 .00037856 00000+0 72703-3 0 9991 2 28485 20.5531 147.8872 0005768 4.2483 355.8008 15.46114713150591 THEMIS A 1 30580U 07004A 25300.91904939 .00000045 00000+0 -16574-2 0 9995 2 30580 4.3155 148.3840 8446841 134.0970 337.2451 0.87835316 39236 THEMIS D 1 30797U 07004D 25300.97987853 .00000024 00000+0 00000+0 0 9997 2 30797 4.4753 90.2821 8396577 195.6505 345.1681 0.87836416 39035 THEMIS E 1 30798U 07004E 25300.95347230 .00000033 00000+0 00000+0 0 9995 2 30798 1.7100 109.2411 8398654 177.4791 350.3556 0.87837793 63878 FGRST (GLAST) 1 33053U 08029A 25300.52702727 .00005049 00000+0 19981-3 0 9993 2 33053 25.5837 17.9727 0009157 104.4138 255.7416 15.22132900960327 TDRS 11 1 39070U 13004A 25300.79534369 .00000092 00000+0 00000+0 0 9992 2 39070 3.1964 26.5950 0001455 39.8173 81.9592 1.00275364 44366 TDRS 12 1 39504U 14004A 25300.89315584 -.00000259 00000+0 00000+0 0 9998 2 39504 3.7699 14.7470 0007881 229.3975 72.7205 1.00263955 41943 GPM-CORE 1 39574U 14009C 25300.91822385 .00017346 00000+0 36820-3 0 9992 2 39574 64.9767 6.1549 0006713 268.4744 91.5628 15.45141485661930 MMS 1 1 40482U 15011A 25300.83334491 -.00000668 00000+0 00000+0 0 9990 2 40482 68.1461 352.4103 8556766 162.3195 358.9192 0.28336045 1373 MMS 2 1 40483U 15011B 25300.83334491 -.00000668 00000+0 00000+0 0 9991 2 40483 68.1507 352.4078 8559401 162.3161 358.9361 0.28335698 1379 MMS 3 1 40484U 15011C 25300.83334491 -.00000669 00000+0 00000+0 0 9993 2 40484 68.1537 352.4181 8558273 162.3258 358.9151 0.28335881 1372 MMS 4 1 40485U 15011D 25300.83334491 -.00000669 00000+0 00000+0 0 9994 2 40485 68.1422 352.4048 8558517 162.3347 358.8752 0.28335928 1376 TDRS 13 1 42915U 17047A 25300.89896253 -.00000091 00000+0 00000+0 0 9999 2 42915 3.4271 356.6977 0012181 129.1340 222.7854 1.00272411 30018 NOAA 20 (JPSS-1) 1 43013U 17073A 25300.89244384 .00000139 00000+0 86915-4 0 9996 2 43013 98.7521 237.7080 0000792 153.3155 206.8062 14.19507105411512